Tracking 19242 objects as of 15-Aug-2018
HD Live streaming from Space Station
objects crossing your sky now

FENGYUN 1C DEB

Track FENGYUN 1C DEB now!
10-day predictions


NORAD ID: 32355
Int'l Code: 1999-025CYY
Perigee: 701.8 km
Apogee: 905.4 km
Inclination: 100.4 °
Period: 100.8 minutes
Semi major axis: 7174 km
RCS: 0.0091 m2 (small)
Launch date: May 10, 1999
Source: People's Republic of China (PRC)
Launch site: Taiyaun Space Center, China (TSC)

Note: This is SATELLITE DEBRIS
aabbcc
Your satellite tracking list
Your tracking list is empty




NASA's NSSDC Master Catalog

Two Line Element Set (TLE):
1 32355U 99025CYY 18226.88547660  .00000683  00000-0  26602-3 0  9992
2 32355 100.3886 256.3687 0141880  85.5770  36.8272 14.28574274580619
Source of the keplerian elements: AFSPC